Torna al catalogo

DELTA 1 DEB

AttivoPO
NORAD 21682·DEBRIS·🇺🇸 United States

Lanciato Jun 12, 1975 da Vandenberg Space Force Base

Loading…

Prossimi Passaggi (prossime 24 ore)

TLE

AggiornatoSource: Space-Track

Epoca: Sep 13, 2026, 19:09 UTC

1 21682U 75052JJ  26256.79860554  .00004809  00000-0  30130-1 0  9992
2 21682  99.3923 185.0222 0837594 108.1540 318.5570 11.78977430505760

Traccia DELTA 1 DEB in tempo reale con AllMySat

Download on the App Store